EW3122 Weather Reports


time (UTC)temp
C
wind
direction
speed
KPH
gust
KPH
rain 1hr
cm
rain 24hr
cm
rain mn
cm
humidity
%
barometer
mb
20260906154540 23 144 4.8 14.5 0.00 0.00 0.00 69 1018.1
20260906153042 23 110 1.6 12.9 0.00 0.00 0.00 70 1018.3
20260906151534 22 111 6.4 14.5 0.00 0.00 0.00 72 1018.2
20260906150034 22 115 6.4 16.1 0.00 0.00 0.00 74 1017.8
20260906144527 22 107 6.4 12.9 0.00 0.00 0.00 76 1018.0
20260906143025 21 128 6.4 12.9 0.00 0.00 0.00 78 1018.1
20260906141523 21 90 0.0 11.3 0.00 0.00 0.00 81 1018.1
20260906140018 21 22 3.2 9.7 0.00 0.00 0.00 85 1017.9
20260906134513 20 112 0.0 11.3 0.00 0.00 0.00 90 1017.9
20260906133009 19 113 4.8 12.9 0.00 0.00 0.00 94 1017.7
20260906131505 18 106 1.6 6.4 0.00 0.00 0.00 96 1017.7
20260906130003 17 128 0.0 0.0 0.00 0.00 0.00 97 1017.8
20260906124601 17 16 0.0 0.0 0.00 0.00 0.00 97 1017.5
20260906123058 17 16 0.0 0.0 0.00 0.00 0.00 97 1017.4
20260906121556 16 16 0.0 0.0 0.00 0.00 0.00 97 1017.1
20260906120052 16 16 0.0 0.0 0.00 0.00 0.00 96 1017.0
20260906114550 16 16 0.0 0.0 0.00 0.00 0.00 96 1016.7
20260906113045 16 16 0.0 0.0 0.00 0.00 0.00 96 1016.6
20260906111601 16 16 0.0 0.0 0.00 0.00 0.00 96 1016.4
20260906110041 16 16 0.0 0.0 0.00 0.00 0.00 96 1016.2
20260906104541 16 16 0.0 3.2 0.00 0.00 0.00 96 1016.2
20260906103039 16 47 0.0 4.8 0.00 0.00 0.00 96 1016.1
20260906101543 16 22 0.0 0.0 0.00 0.00 0.00 96 1016.1
20260906100042 16 38 0.0 0.0 0.00 0.00 0.00 95 1016.2
20260906094536 16 38 0.0 0.0 0.00 0.00 0.00 95 1016.0
20260906093038 16 34 0.0 0.0 0.00 0.00 0.00 95 1015.9
20260906091535 16 15 0.0 0.0 0.00 0.00 0.00 95 1015.9
20260906090033 16 15 0.0 0.0 0.00 0.00 0.00 95 1015.7
20260906084533 17 5 1.6 6.4 0.00 0.00 0.00 95 1015.6
20260906083032 16 17 1.6 6.4 0.00 0.00 0.00 95 1015.7
20260906081530 16 360 3.2 6.4 0.00 0.00 0.00 95 1015.7
20260906080028 16 342 3.2 8.0 0.00 0.00 0.00 95 1015.8
20260906074527 16 348 3.2 4.8 0.00 0.00 0.00 94 1015.7
20260906073028 16 350 3.2 8.0 0.00 0.00 0.00 94 1015.5
20260906071522 17 343 3.2 6.4 0.00 0.00 0.00 94 1015.3
20260906070021 17 346 0.0 0.0 0.00 0.00 0.00 94 1015.4
20260906064520 17 346 0.0 4.8 0.00 0.00 0.00 94 1015.2
20260906063019 17 343 0.0 4.8 0.00 0.00 0.00 94 1015.3
20260906061517 17 355 0.0 0.0 0.00 0.00 0.00 93 1015.3
20260906060025 17 355 0.0 0.0 0.00 0.00 0.00 93 1015.2
20260906054526 17 11 0.0 0.0 0.00 0.00 0.00 93 1015.1
20260906053013 17 11 0.0 4.8 0.00 0.00 0.00 92 1015.0
20260906051512 17 16 0.0 4.8 0.00 0.00 0.00 92 1015.0
20260906050010 17 26 3.2 8.0 0.00 0.00 0.00 92 1015.0
20260906044509 17 5 3.2 8.0 0.00 0.00 0.00 92 1015.1
20260906043014 17 5 4.8 9.7 0.00 0.00 0.00 92 1015.0
20260906041506 17 21 4.8 8.0 0.00 0.00 0.00 92 1014.8
20260906040009 17 11 4.8 9.7 0.00 0.00 0.00 91 1014.7
20260906034507 17 22 4.8 8.0 0.00 0.00 0.00 91 1014.7
20260906033012 17 17 4.8 8.0 0.00 0.00 0.00 90 1014.7
20260906031505 17 22 4.8 8.0 0.00 0.00 0.00 90 1014.7
20260906030001 17 33 3.2 8.0 0.00 0.00 0.00 89 1014.7
20260906024613 18 27 4.8 8.0 0.00 0.00 0.00 89 1014.6
20260906023103 18 22 4.8 8.0 0.00 0.00 0.00 90 1014.6
20260906021557 18 19 4.8 8.0 0.00 0.00 0.00 91 1014.5
20260906020055 18 16 3.2 9.7 0.00 0.00 0.00 91 1014.5
20260906014552 18 21 3.2 8.0 0.00 0.00 0.00 90 1014.4
20260906013050 18 61 1.6 6.4 0.00 0.00 0.00 89 1014.2
20260906011548 19 49 0.0 0.0 0.00 0.00 0.00 88 1014.3
20260906010046 20 131 0.0 0.0 0.00 0.00 0.00 87 1014.3
20260906004544 20 38 0.0 0.0 0.00 0.00 0.00 87 1014.1
20260906003042 20 38 0.0 0.0 0.00 0.00 0.00 86 1014.1
20260906001542 20 34 0.0 4.8 0.00 0.00 0.00 85 1014.0
20260906000041 21 44 1.6 6.4 0.00 0.00 0.00 84 1014.0
20260905234541 21 41 1.6 8.0 0.00 0.00 0.00 83 1014.1
20260905233044 22 38 1.6 12.9 0.00 0.00 0.00 83 1014.2
20260905231538 22 84 1.6 12.9 0.00 0.00 0.00 82 1014.2
20260905230036 22 57 3.2 11.3 0.00 0.00 0.00 81 1013.9
20260905224606 22 119 1.6 6.4 0.00 0.00 0.00 82 1013.8
20260905223037 22 360 1.6 16.1 0.00 0.00 0.00 83 1013.7
20260905221530 22 146 4.8 17.7 0.00 0.00 0.00 84 1013.5
20260905220028 22 12 1.6 9.7 0.00 0.00 0.00 86 1013.9
20260905214527 21 9 1.6 14.5 0.00 0.00 0.00 87 1013.7
20260905213027 21 38 6.4 14.5 0.00 0.00 0.00 87 1013.9
20260905211540 21 19 4.8 8.0 0.00 0.00 0.00 88 1013.8
20260905210039 21 53 1.6 16.1 0.00 0.00 0.00 88 1013.9
20260905204524 21 360 0.0 9.7 0.00 0.00 0.00 88 1013.9
20260905203023 21 44 3.2 8.0 0.00 0.00 0.00 88 1013.8
20260905201523 21 98 3.2 9.7 0.00 0.00 0.00 88 1013.7
20260905200026 21 59 3.2 9.7 0.00 0.00 0.00 88 1013.5
20260905194521 21 5 3.2 9.7 0.00 0.00 0.00 88 1013.6
20260905193020 21 54 1.6 14.5 0.00 0.00 0.00 88 1013.7
20260905191520 22 27 4.8 9.7 0.00 0.00 0.00 87 1013.7
20260905190019 22 39 3.2 16.1 0.00 0.00 0.00 87 1013.7
20260905184527 22 39 3.2 11.3 0.00 0.00 0.00 87 1013.7
20260905183017 22 70 3.2 14.5 0.00 0.00 0.00 88 1013.9
20260905181517 21 41 6.4 22.5 0.00 0.00 0.00 89 1013.8
20260905180014 21 16 3.2 14.5 0.00 0.00 0.00 90 1013.8
20260905174511 21 351 6.4 14.5 0.00 0.00 0.00 92 1013.8
20260905173010 21 18 3.2 14.5 0.00 0.00 0.00 94 1013.6
20260905171508 21 53 4.8 16.1 0.00 0.00 0.00 95 1013.7
20260905170006 20 54 8.0 19.3 0.00 0.00 0.00 95 1013.7
20260905164510 20 34 6.4 16.1 0.00 0.00 0.00 96 1013.6
20260905163004 20 360 3.2 16.1 0.00 0.00 0.00 96 1013.8
20260905161505 20 18 4.8 12.9 0.00 0.00 0.00 96 1013.5
20260905160001 20 89 3.2 9.7 0.00 0.00 0.00 96 1013.4